Weather in Sagastyr

Russia / Sakha (Yakutia) Republic     73°22′52″N   126°35′49″E
temp.,
°C
wind,
m/s
gust,
m/s
humid.,
%
clouds,
%
prec.,
mm/h
press.,
hPa
HPBL,
m
7 may, fri
fri700:00−10ene469684 0.0 102261
03:00−13ene469875 0.0 102350
06:00−12ene4698100 0.0 102382
09:00−6ene578899 0.1 1023519
12:00−3e5678100 0.1 1022750
15:00−2e5575100 0.1 1022871
18:00−3e5574100 0.0 1022880
21:00−4e4585100 0.1 1022138
8 may, sat
sat800:00−6ene4596100 0.1 1022104
03:00−6e4696100 0.1 1022119
06:00−5e4693100 0.0 1022172
09:00−5e46915 0.0 1022207
12:00−3ese458164 0.0 1021539
15:00−2ese557596 0.0 1020768
18:00−2ese468198 0.0 1020382
21:00−2e5789100 0.0 1020264
9 may, sun
sun900:00−3e5894100 0.0 1019195
03:00−3e5895100 0.1 1019260
06:00−3e6894100 0.1 1020479
09:00−2e6884100 0.1 1021755
12:00−1ene6881100 0.1 1021962
15:00−1ne7884100 0.3 1022739
18:00−1ne6885100 0.1 1024781
21:00−2nne6993100 0.2 1025421
10 may, mon
mon1000:00−3nne6994100 0.1 1026304
03:00−4n71095100 0.1 1027268
06:00−5n71195100 0.1 1028299
09:00−3nne799299 0.2 1029407
12:00−3nne7888100 0.1 1030577
15:00−3nne788598 0.1 1031598
18:00−5n6109076 0.0 1031373
21:00−9n59925 0.0 103294
11 may, tue
tue1100:00−12n469633 0.0 103251
03:00−13n469770 0.0 103256
06:00−11n479784 0.0 1032100
09:00−8nne5792100 0.1 1032336
12:00−5nne5687100 0.0 1031504
15:00−4nne458597 0.1 1031591
18:00−4nne448197 0.0 1030616
21:00−4nne3382100 0.1 103095